Miscellaneous Local Product
Issued by NWS North Platte, NE

Home | Current Version | Previous Version | Text Only | Print | Product List | Glossary On
Versions: 1 2 3 4 5 6 7 8 9 10 11 12 13 14 15 16 17 18 19 20 21 22 23 24 25 26 27 28 29 30 31 32 33 34 35 36 37 38 39 40 41 42 43 44 45 46 47 48 49 50
000
AXUS43 KLBF 251710
MISLBF


WESTERN AND NORTH CENTRAL NEBRASKA HOURLY WEATHER ROUNDUP
NATIONAL WEATHER SERVICE NORTH PLATTE NE
1200 PM CDT SUN SEP 25 2016

NOTE: "FAIR" INDICATES FEW OR NO CLOUDS BELOW 12,000 FEET WITH NO
SIGNIFICANT WEATHER AND/OR OBSTRUCTIONS TO VISIBILITY.

NOTE: STATIONS NOT REPORTING VARIABLES SUCH AS SKY/WEATHER OR
PRESSURE ARE PROVIDED BY RAWS AND APRS NETWORKS AND ARE NOT UNDER
NATIONAL WEATHER SERVICE QUALITY CONTROL.

...OBSERVATIONS IN AND NEAR THE EASTERN PANHANDLE OF NEBRASKA...

CITY           SKY/WX    TMP DP  RH WIND       PRES   REMARKS
PINE RIDGE     SUNNY     61  27  27 NW18G28   30.35S
CHADRON        SUNNY     59  34  39 NW23G30   30.38F
ALLIANCE       SUNNY     59  35  40 NW24G32   30.38S
SIDNEY         LGT RAIN  61  37  41 NW25G35   30.43S
CRESCENT LAKE    N/A     60  31  33 NW18G26     N/A
$$

...OBSERVATIONS IN NORTHERN NEBRASKA AND FAR SOUTHERN SOUTH DAKOTA...

CITY           SKY/WX    TMP DP  RH WIND       PRES   REMARKS
WINNER         FAIR      65  36  34 NW30G39   30.20R
VALENTINE      SUNNY     61  31  32 NW28G36   30.26F
THEDFORD       SUNNY     64  34  32 NW25G33   30.30S
AINSWORTH      SUNNY     61  35  37 NW26G36   30.25R
O`NEILL        MOSUNNY   65  39  38 NW28G39   30.19R
ORD            SUNNY     65  40  39 NW25G37   30.21S
BROKEN BOW     SUNNY     64  37  36 NW29G37   30.26R
VALENTINE NWR    N/A     60  35  39 NW21G33     N/A
BUTTE            N/A     62  43  49 NW28G41     N/A
HALSEY           N/A     62  34  35 NW16G31     N/A
EWING            N/A     64  49  59 NW18G26     N/A
$$

...OBSERVATIONS IN SOUTHWEST NEBRASKA AND FAR NORTHEAST COLORADO...

CITY           SKY/WX    TMP DP  RH WIND       PRES   REMARKS
WRAY           FAIR      64  32  29 N21G29    30.40S
HOLYOKE        FAIR      64  36  34 N23G33    30.40S
IMPERIAL       SUNNY     64  36  35 NW26G33   30.36R
OGALLALA       SUNNY     65  33  30 NW26G35   30.36S
NORTH PLATTE   SUNNY     68  38  33 NW25G35   30.31S
MCCOOK         SUNNY     69  38  32 NW22G28   30.32S
LEXINGTON      SUNNY     66  41  40 NW22G29   30.28F
STAPLETON        N/A     63  36  36 N3G12       N/A
GOTHENBURG       N/A     61  39  44 NW17        N/A
CALLAWAY         N/A     61  45  56 NW21        N/A
$$

...OBSERVATIONS IN CENTRAL LINCOLN COUNTY AREA...

CITY           SKY/WX    TMP DP  RH WIND       PRES   REMARKS
N.P. AIRPORT   SUNNY     68  38  33 NW25G35   30.31S
N.P. DOWNTOWN    N/A     63  41  43 NW12G21     N/A
N.P. SOUTHEAST   N/A     63  39  41 N10G23      N/A
N.P. HILLCREST   N/A     63  36  36 NW22G32     N/A
$$

...SOME OBSERVATIONS FROM AROUND THE REGION...

CITY           SKY/WX    TMP DP  RH WIND       PRES   REMARKS
DENVER         MOSUNNY   59  29  31 NE14      30.48S
LARAMIE        SUNNY     48  30  49 CALM      30.50F
CHEYENNE       MOSUNNY   53  31  42 N12       30.48S
SCOTTSBLUFF    CLOUDY    61  38  42 NW17      30.43F
RAPID CITY     SUNNY     59  31  34 NW25G35   30.34R
BISMARCK       MOSUNNY   59  38  45 NW29G43   30.09R
PIERRE         SUNNY     63  35  35 NW37G48   30.14R
SIOUX FALLS    CLOUDY    59  49  69 NW23G32   30.05R
OMAHA          CLOUDY    66  51  58 NW10      30.13F
GRAND ISLAND   SUNNY     67  45  45 NW18G29   30.23S
KANSAS CITY    DRIZZLE   60  53  77 NW12      30.16R
WICHITA        CLOUDY    65  51  60 N21G31    30.20S
OKLAHOMA CITY  CLOUDY    74  66  76 N10       30.13R
DALLAS         CLOUDY    76  71  85 NW10      30.04S
AMARILLO       SUNNY     68  41  37 N29G36    30.31S
DODGE CITY     SUNNY     69  43  38 N20G29    30.29S
HAYS           SUNNY     70  43  37 N18G25    30.29S
GOODLAND       SUNNY     64  34  32 N23G31    30.38S
$$




USA.gov is the U.S. government's official web portal to all federal, state and local government web resources and services.